Change the Weather History Date:

Friday, October 18, 2013

  Actual Average Record
Temperature  
Mean Temperature 58 °F -  
Max Temperature 66 °F 55 °F 78 °F (1998)
Min Temperature 50 °F 31 °F 21 °F (1996)
Degree Days  
Heating Degree Days 7    
Growing Degree Days 8 (Base 50)    
Moisture  
Dew Point 47 °F    
Average Humidity 77    
Maximum Humidity 100    
Minimum Humidity 44    
Precipitation  
Precipitation 0.37 in - - ()
Sea Level Pressure  
Sea Level Pressure 29.69 in    
Wind  
Wind Speed 2 mph (West)    
Max Wind Speed 13 mph    
Max Gust Speed 24 mph    
Visibility 8 miles    
Events Rain    
Averages and records for this station are not official NWS values.
T = Trace of Precipitation, MM = Missing Value Source: NWS Daily Summary

Daily Weather History Graph

Daily Weather History Graph

Search for Another Location

Airport or City:

Trip Planner

Search our weather history database for the weather conditions in past years. The results will help you decide how hot, cold, wet, or windy it might be!

Date:

Astronomy

Oct. 18, 2013 Rise Set
Actual Time 7:02 AM EDT 5:54 PM EDT
Civil Twilight 6:33 AM EDT 6:23 PM EDT
Nautical Twilight 5:59 AM EDT 6:57 PM EDT
Astronomical Twilight 5:26 AM EDT 7:30 PM EDT
Moon 5:42 PM EDT (10/18) 6:34 AM EDT (10/18)
Length of Visible Light 11h 50m
Length of Day
10h 52m
Full, 100% of the Moon is Illuminated
Oct 18
Full
Oct 18
Full
Oct 26
Last Quarter
Nov 3
New
Nov 10
First Quarter

Hourly Weather History & Observations

Time (EDT) Temp. Dew Point Humidity Pressure Visibility Wind Dir Wind Speed Gust Speed Precip Events Conditions
12:54 AM 50.0 °F 48.9 °F 96% 29.75 in 9.0 mi Calm Calm - 0.02 in Rain Light Rain
1:54 AM 50.0 °F 48.0 °F 93% 29.71 in 8.0 mi Calm Calm - 0.01 in Rain Light Rain
2:54 AM 50.0 °F 48.9 °F 96% 29.65 in 9.0 mi Calm Calm - 0.02 in Rain Light Rain
3:36 AM 50.0 °F 48.2 °F 94% 29.66 in 2.5 mi Calm Calm - 0.09 in Rain Heavy Rain
3:50 AM 50.0 °F 48.2 °F 94% 29.65 in 3.0 mi Calm Calm - 0.15 in Rain Rain
3:54 AM 50.0 °F 50.0 °F 100% 29.65 in 3.0 mi Calm Calm - 0.16 in Rain Heavy Rain
4:03 AM 50.0 °F 48.2 °F 94% 29.65 in 2.5 mi Calm Calm - 0.04 in Rain Rain
4:07 AM 50.0 °F 48.2 °F 94% 29.65 in 3.0 mi NW 3.5 mph - 0.05 in Rain Rain
4:21 AM 50.0 °F 50.0 °F 100% 29.64 in 2.5 mi Calm Calm - 0.10 in Rain Heavy Rain
4:31 AM 51.8 °F 50.0 °F 94% 29.64 in 4.0 mi Calm Calm - 0.12 in Rain Rain
4:44 AM 51.8 °F 48.2 °F 88% 29.64 in 6.0 mi Calm Calm - 0.13 in Rain Light Rain
4:54 AM 51.1 °F 50.0 °F 96% 29.63 in 4.0 mi Calm Calm - 0.13 in Rain Light Rain
5:54 AM 51.1 °F 50.0 °F 96% 29.62 in 4.0 mi Calm Calm - 0.02 in Rain Light Rain
6:54 AM 52.0 °F 51.1 °F 97% 29.62 in 5.0 mi Calm Calm - 0.01 in   Overcast
7:54 AM 53.1 °F 51.1 °F 93% 29.64 in 10.0 mi NW 3.5 mph - N/A   Overcast
8:03 AM 53.6 °F 51.8 °F 94% 29.63 in 10.0 mi Calm Calm - N/A   Mostly Cloudy
8:13 AM 53.6 °F 51.8 °F 94% 29.63 in 10.0 mi SW 3.5 mph - N/A   Scattered Clouds
8:46 AM 55.4 °F 53.6 °F 94% 29.64 in 10.0 mi Calm Calm - N/A   Partly Cloudy
8:54 AM 55.9 °F 53.1 °F 90% 29.64 in 10.0 mi SW 4.6 mph - N/A   Partly Cloudy
9:54 AM 61.0 °F 51.1 °F 70% 29.66 in 10.0 mi WNW 8.1 mph - N/A   Clear
10:54 AM 63.0 °F 46.0 °F 54% 29.67 in 10.0 mi WNW 12.7 mph 24.2 mph N/A   Clear
11:54 AM 64.9 °F 45.0 °F 48% 29.68 in 10.0 mi WNW 11.5 mph 19.6 mph N/A   Partly Cloudy
12:54 PM 63.0 °F 45.0 °F 52% 29.69 in 10.0 mi WNW 8.1 mph - N/A   Overcast
1:54 PM 66.9 °F 44.1 °F 44% 29.69 in 10.0 mi West 8.1 mph - N/A   Scattered Clouds
2:54 PM 63.0 °F 44.1 °F 50% 29.70 in 10.0 mi West 9.2 mph - N/A   Overcast
3:54 PM 62.1 °F 44.1 °F 52% 29.71 in 10.0 mi West 5.8 mph - N/A   Overcast
4:54 PM 63.0 °F 44.1 °F 50% 29.72 in 10.0 mi WNW 6.9 mph - N/A   Mostly Cloudy
5:54 PM 59.0 °F 43.0 °F 55% 29.75 in 10.0 mi West 5.8 mph - N/A   Partly Cloudy
6:54 PM 55.0 °F 44.1 °F 67% 29.76 in 10.0 mi West 5.8 mph - N/A   Mostly Cloudy
7:54 PM 55.9 °F 41.0 °F 57% 29.79 in 10.0 mi West 5.8 mph - N/A   Mostly Cloudy
8:54 PM 54.0 °F 39.9 °F 59% 29.81 in 10.0 mi WSW 3.5 mph - N/A   Clear
9:54 PM 54.0 °F 37.9 °F 55% 29.83 in 10.0 mi West 5.8 mph - N/A   Clear
10:54 PM 51.1 °F 37.0 °F 59% 29.84 in 10.0 mi West 3.5 mph - N/A   Clear
11:54 PM 50.0 °F 35.1 °F 57% 29.85 in 10.0 mi SW 5.8 mph - N/A   Clear